﻿_id,日時,平均風速(m/s),平均風向,最大瞬間風速(m/s),最大風速時風向,気温(℃),湿度(%),10分間移動積算雨量(mm),1時間移動積算雨量(mm),日雨量(mm),累計雨量(mm)
1,2020-07-06T00:00:00,0.3,西,1.6,南,23.2,96.2,0.5,0.5,0.5,0.5
2,2020-07-06T00:01:00,0.3,西南西,1.6,南,23.2,96.3,0.5,0.5,0,0.5
3,2020-07-06T00:02:00,0.2,静穏,1.6,南,23.2,96.4,0.5,0.5,0,0.5
4,2020-07-06T00:03:00,0.1,静穏,0.9,南,23.2,96.3,0.5,0.5,0,0.5
5,2020-07-06T00:04:00,0.1,静穏,0.7,西,23.2,96.3,0.5,0.5,0,0.5
6,2020-07-06T00:05:00,0.1,静穏,0.7,西,23.2,96.3,0.5,0.5,0,0.5
7,2020-07-06T00:06:00,0.2,静穏,0.9,南東,23.2,96.4,0.5,0.5,0,0.5
8,2020-07-06T00:07:00,0.3,南南東,1.2,南東,23.2,96.5,0.5,0.5,0,0.5
9,2020-07-06T00:08:00,0.4,南東,1.7,東南東,23.1,96.3,0,0.5,0,0.5
10,2020-07-06T00:09:00,0.5,南東,1.8,東南東,23.1,96.4,0,0.5,0,0.5
11,2020-07-06T00:10:00,0.6,東南東,1.8,東南東,23.1,96.5,0,0.5,0,0.5
12,2020-07-06T00:11:00,0.6,東南東,1.8,東南東,23.1,96.7,0,0.5,0,0.5
13,2020-07-06T00:12:00,0.6,東南東,1.8,東南東,23.1,96.8,0,0.5,0,0.5
14,2020-07-06T00:13:00,0.6,東南東,1.8,東南東,23.2,96.8,0,0.5,0,0.5
15,2020-07-06T00:14:00,0.7,東,1.8,東南東,23.1,96.8,0,0.5,0,0.5
16,2020-07-06T00:15:00,0.8,東,1.8,東南東,23.1,96.8,0,0.5,0,0.5
17,2020-07-06T00:16:00,0.8,東,1.8,東南東,23.1,96.7,0,0.5,0,0.5
18,2020-07-06T00:17:00,0.8,東北東,1.8,東南東,23.1,96.8,0,0.5,0,0.5
19,2020-07-06T00:18:00,0.7,東北東,1.8,東南東,23.2,96.8,0,0.5,0,0.5
20,2020-07-06T00:19:00,0.6,北東,1.3,東,23.1,96.7,0,0.5,0,0.5
21,2020-07-06T00:20:00,0.5,北北東,1.2,北北東,23.2,96.8,0,0.5,0,0.5
22,2020-07-06T00:21:00,0.5,北北東,1.2,北北東,23.2,96.9,0,0.5,0,0.5
23,2020-07-06T00:22:00,0.5,北,1.2,北北東,23.2,96.7,0,0.5,0,0.5
24,2020-07-06T00:23:00,0.5,北,1.2,北北東,23.1,96.6,0,0.5,0,0.5
25,2020-07-06T00:24:00,0.5,北北西,1.2,北北東,23.2,96.6,0,0.5,0,0.5
26,2020-07-06T00:25:00,0.4,北北西,1.2,北北東,23.2,96.7,0,0.5,0,0.5
27,2020-07-06T00:26:00,0.3,北北西,0.9,北,23.4,97,0,0.5,0,0.5
28,2020-07-06T00:27:00,0.2,静穏,0.8,北北西,23.5,97,0,0.5,0,0.5
29,2020-07-06T00:28:00,0.2,静穏,0.6,北西,23.3,96.2,0,0.5,0,0.5
30,2020-07-06T00:29:00,0.2,静穏,0.6,北西,23.3,96,0,0.5,0,0.5
31,2020-07-06T00:30:00,0.2,静穏,0.6,北西,23.2,96.2,0,0.5,0,0.5
32,2020-07-06T00:31:00,0.2,静穏,0.6,北西,23.2,96.2,0,0.5,0,0.5
33,2020-07-06T00:32:00,0.2,静穏,0.6,北西,23.2,96.4,0,0.5,0,0.5
34,2020-07-06T00:33:00,0.1,静穏,0.6,北西,23.2,96.4,0,0.5,0,0.5
35,2020-07-06T00:34:00,0.2,静穏,0.6,北西,23.2,96.4,0,0.5,0,0.5
36,2020-07-06T00:35:00,0.2,静穏,0.6,北西,23.4,96.8,0,0.5,0,0.5
37,2020-07-06T00:36:00,0.2,静穏,0.6,北西,23.6,97.2,0,0.5,0,0.5
38,2020-07-06T00:37:00,0.3,南西,0.7,西北西,23.3,96.5,0,0.5,0,0.5
39,2020-07-06T00:38:00,0.3,南西,0.8,西南西,23.2,96,0,0.5,0,0.5
40,2020-07-06T00:39:00,0.3,南西,0.8,西南西,23.3,96.2,0,0.5,0,0.5
41,2020-07-06T00:40:00,0.3,南西,0.8,西南西,23.2,96.2,0,0.5,0,0.5
42,2020-07-06T00:41:00,0.3,西南西,0.8,西南西,23.2,96.2,0,0.5,0,0.5
43,2020-07-06T00:42:00,0.3,西南西,0.8,西南西,23.2,96.4,0,0.5,0,0.5
44,2020-07-06T00:43:00,0.3,西,0.8,西南西,23.2,96.4,0,0.5,0,0.5
45,2020-07-06T00:44:00,0.3,北西,0.8,西南西,23.2,96.4,0,0.5,0,0.5
46,2020-07-06T00:45:00,0.3,北北西,0.8,西南西,23.3,96.7,0,0.5,0,0.5
47,2020-07-06T00:46:00,0.3,北北西,0.8,西南西,23.2,96.3,0,0.5,0,0.5
48,2020-07-06T00:47:00,0.4,北北西,0.8,西南西,23.2,96.3,0,0.5,0,0.5
49,2020-07-06T00:48:00,0.3,北北西,0.8,北西,23.1,96.4,0,0.5,0,0.5
50,2020-07-06T00:49:00,0.4,北,0.8,北西,23.1,96.4,0,0.5,0,0.5
51,2020-07-06T00:50:00,0.4,北北西,0.8,北西,23.1,96.5,0,0.5,0,0.5
52,2020-07-06T00:51:00,0.4,北北西,1.3,北西,23.1,96.6,0,0.5,0,0.5
53,2020-07-06T00:52:00,0.4,北北西,1.3,北西,23.1,96.6,0,0.5,0,0.5
54,2020-07-06T00:53:00,0.5,北北西,1.3,北西,23.1,96.7,0,0.5,0,0.5
55,2020-07-06T00:54:00,0.5,北西,1.5,西,23.1,96.8,0,0.5,0,0.5
56,2020-07-06T00:55:00,0.6,北西,1.5,西,23.1,96.6,0,0.5,0,0.5
57,2020-07-06T00:56:00,0.6,西北西,1.5,西,23.1,96.7,0,0.5,0,0.5
58,2020-07-06T00:57:00,0.6,西,1.5,西,23.1,96.7,0,0.5,0,0.5
59,2020-07-06T00:58:00,0.6,西,1.5,西,23.1,96.7,0,0,0,0.5
60,2020-07-06T00:59:00,0.5,西,1.5,西,23,96.8,0.5,0.5,0.5,1
61,2020-07-06T01:00:00,0.6,西,1.5,西,23,96.7,0.5,0.5,0.5,1
62,2020-07-06T01:01:00,0.5,西,1.5,西,23.1,96.9,0.5,0.5,0.5,1
63,2020-07-06T01:02:00,0.4,西北西,1.5,西,23.1,97,0.5,0.5,0.5,1
64,2020-07-06T01:03:00,0.5,西北西,1.7,北,23.1,96.8,0.5,0.5,0.5,1
65,2020-07-06T01:04:00,0.5,北西,1.7,北,23.1,96.8,0.5,0.5,0.5,1
66,2020-07-06T01:05:00,0.6,北西,2.8,西,23.1,96.9,0.5,0.5,0.5,1
67,2020-07-06T01:06:00,0.7,北西,2.8,西,23.1,96.9,0.5,0.5,0.5,1
68,2020-07-06T01:07:00,0.8,北西,2.8,西,23.1,96.9,1,1,1,1.5
69,2020-07-06T01:08:00,0.8,北西,2.8,西,23.1,96.9,1,1,1,1.5
70,2020-07-06T01:09:00,0.9,北西,2.8,西,23.2,96.9,0.5,1,1,1.5
71,2020-07-06T01:10:00,1,西北西,2.8,西,23.2,96.9,0.5,1,1,1.5
72,2020-07-06T01:11:00,1.2,西北西,2.8,西,23.2,96.8,0.5,1,1,1.5
73,2020-07-06T01:12:00,1.3,西,2.8,西,23.3,96.9,0.5,1,1,1.5
74,2020-07-06T01:13:00,1.5,西,3.3,西南西,23.2,96.6,0.5,1,1,1.5
75,2020-07-06T01:14:00,1.6,西南西,3.3,西南西,23.2,96.5,0.5,1,1,1.5
76,2020-07-06T01:15:00,1.6,西南西,3.3,西南西,23.2,96.5,0.5,1,1,1.5
77,2020-07-06T01:16:00,1.6,西南西,3.3,西南西,23.2,96.5,0.5,1,1,1.5
78,2020-07-06T01:17:00,1.6,西南西,3.3,西南西,23.2,96.5,0,1,1,1.5
79,2020-07-06T01:18:00,1.7,南西,3.3,西南西,23.2,96.5,0.5,1.5,1.5,2
80,2020-07-06T01:19:00,1.9,南西,3.4,西,23.2,96.5,0.5,1.5,1.5,2
81,2020-07-06T01:20:00,2,西南西,3.8,西南西,23.2,96.6,0.5,1.5,1.5,2
82,2020-07-06T01:21:00,2,西南西,3.8,西南西,23.2,96.6,0.5,1.5,1.5,2
83,2020-07-06T01:22:00,2,西南西,3.8,西南西,23.2,96.5,0.5,1.5,1.5,2
84,2020-07-06T01:23:00,1.8,西南西,3.8,西南西,23.2,96.5,0.5,1.5,1.5,2
85,2020-07-06T01:24:00,1.8,西南西,3.8,西南西,23.2,96.5,1,2,2,2.5
86,2020-07-06T01:25:00,1.9,西南西,3.8,西南西,23.2,96.4,1,2,2,2.5
87,2020-07-06T01:26:00,1.9,西南西,3.8,西南西,23.2,96.4,1,2,2,2.5
88,2020-07-06T01:27:00,2,西南西,3.8,西南西,23.1,96.3,1,2,2,2.5
89,2020-07-06T01:28:00,2,西南西,3.8,西南西,23.2,96.4,0.5,2,2,2.5
90,2020-07-06T01:29:00,1.9,西南西,3.8,西南西,23.2,96.4,0.5,2,2,2.5
91,2020-07-06T01:30:00,1.8,西,3.4,西,23.2,96.5,0.5,2,2,2.5
92,2020-07-06T01:31:00,1.6,西,3.4,西,23.2,96.7,0.5,2,2,2.5
93,2020-07-06T01:32:00,1.4,西,3.4,西,23.2,96.4,0.5,2,2,2.5
94,2020-07-06T01:33:00,1.4,西,3.4,西,23.2,96.5,1,2.5,2.5,3
95,2020-07-06T01:34:00,1.3,西,3.4,西,23.1,96.4,0.5,2.5,2.5,3
96,2020-07-06T01:35:00,1.1,西北西,3.4,西,23.1,96.4,0.5,2.5,2.5,3
97,2020-07-06T01:36:00,0.8,西北西,3.2,西南西,23.1,96.7,0.5,2.5,2.5,3
98,2020-07-06T01:37:00,0.6,北東,3,西南西,23.1,96.7,0.5,2.5,2.5,3
99,2020-07-06T01:38:00,0.4,東,1.8,西,23.3,97.1,0.5,2.5,2.5,3
100,2020-07-06T01:39:00,0.3,南東,1.8,西,23.2,96.9,0.5,2.5,2.5,3
101,2020-07-06T01:40:00,0.3,南東,2.8,西,23.1,96.8,0.5,2.5,2.5,3
102,2020-07-06T01:41:00,0.6,南南東,4.4,西,23.1,96.8,0.5,2.5,2.5,3
103,2020-07-06T01:42:00,0.8,南,4.4,西,23.1,96.9,0.5,2.5,2.5,3
104,2020-07-06T01:43:00,0.8,南,4.4,西,23.2,96.9,0,2.5,2.5,3
105,2020-07-06T01:44:00,0.9,南南西,4.4,西,23.2,97,0,2.5,2.5,3
106,2020-07-06T01:45:00,1,南西,4.4,西,23.2,97,0,2.5,2.5,3
107,2020-07-06T01:46:00,1.1,南西,4.4,西,23.2,96.9,0,2.5,2.5,3
108,2020-07-06T01:47:00,1.3,西南西,4.4,西,23.3,96.9,0,2.5,2.5,3
109,2020-07-06T01:48:00,1.6,西南西,5.1,西,23.4,96.9,0,2.5,2.5,3
110,2020-07-06T01:49:00,1.9,西南西,5.8,南南西,23.4,96.5,0,2.5,2.5,3
111,2020-07-06T01:50:00,2.2,西南西,5.8,南南西,23.4,96.2,0,2.5,2.5,3
112,2020-07-06T01:51:00,2.1,西南西,5.8,南南西,23.4,96,0,2.5,2.5,3
113,2020-07-06T01:52:00,2.2,西南西,5.8,南南西,23.5,95.8,0,2.5,2.5,3
114,2020-07-06T01:53:00,2.2,西南西,5.8,南南西,23.4,95.7,0,2.5,2.5,3
115,2020-07-06T01:54:00,2.2,西南西,5.8,南南西,23.4,95.7,0,2.5,2.5,3
116,2020-07-06T01:55:00,2.2,西南西,5.8,南南西,23.5,95.8,0,2.5,2.5,3
117,2020-07-06T01:56:00,2.1,南西,5.8,南南西,23.5,95.5,0,2.5,2.5,3
118,2020-07-06T01:57:00,2.2,南西,5.8,南南西,23.5,95.6,0,2.5,2.5,3
119,2020-07-06T01:58:00,2,南西,5.8,南南西,23.6,95.7,0,2.5,2.5,3
120,2020-07-06T01:59:00,1.8,南西,5.4,南南西,23.6,95.6,0,2,2.5,3
121,2020-07-06T02:00:00,1.7,南西,3.8,西南西,23.6,95.4,0,2,2.5,3
122,2020-07-06T02:01:00,1.7,南西,3.8,西南西,23.6,95.2,0,2,2.5,3
123,2020-07-06T02:02:00,1.8,南西,3.8,西南西,23.6,95.2,0.5,2.5,3,3.5
124,2020-07-06T02:03:00,1.9,南西,3.8,西南西,23.6,94.7,0.5,2.5,3,3.5
125,2020-07-06T02:04:00,2,南西,4.1,南西,23.6,94.7,0.5,2.5,3,3.5
126,2020-07-06T02:05:00,2.1,南西,4.1,南西,23.7,94.2,0.5,2.5,3,3.5
127,2020-07-06T02:06:00,2.3,南西,4.1,南西,23.7,93.9,0.5,2.5,3,3.5
128,2020-07-06T02:07:00,2.2,南西,4.1,南西,23.7,93.7,0.5,2,3,3.5
129,2020-07-06T02:08:00,2.2,南西,4.1,南西,23.7,93.6,0.5,2,3,3.5
130,2020-07-06T02:09:00,2.1,南西,4.1,南西,23.7,93.9,0.5,2,3,3.5
131,2020-07-06T02:10:00,1.9,南西,4.1,南西,23.7,94.5,0.5,2,3,3.5
132,2020-07-06T02:11:00,1.8,南西,4.1,南西,23.6,94.5,0.5,2,3,3.5
133,2020-07-06T02:12:00,1.5,南南西,4.1,南西,23.6,94.5,0,2,3,3.5
134,2020-07-06T02:13:00,1.3,南南西,4.1,南西,23.6,94.5,0,2,3,3.5
135,2020-07-06T02:14:00,1.2,南南西,3.4,南西,23.6,94.6,0,2,3,3.5
136,2020-07-06T02:15:00,1.1,南南西,3.3,西南西,23.6,94.5,0,2,3,3.5
137,2020-07-06T02:16:00,1,南南西,3.1,南西,23.7,94.5,0,2,3,3.5
138,2020-07-06T02:17:00,0.9,南南西,3.1,南西,23.9,93.3,0,2,3,3.5
139,2020-07-06T02:18:00,0.8,南南西,3.1,南西,24.1,92.9,0,1.5,3,3.5
140,2020-07-06T02:19:00,0.8,南南西,3.1,南西,23.9,91.7,0,1.5,3,3.5
141,2020-07-06T02:20:00,0.7,南南西,3.1,南西,23.7,92.2,0,1.5,3,3.5
142,2020-07-06T02:21:00,0.7,南南西,3.1,南西,23.7,92.9,0,1.5,3,3.5
143,2020-07-06T02:22:00,0.7,南南西,3.1,南西,23.5,93.4,0,1.5,3,3.5
144,2020-07-06T02:23:00,0.8,南南西,3.1,南西,23.5,94.3,0,1.5,3,3.5
145,2020-07-06T02:24:00,0.8,南南西,3.1,南西,23.5,94.9,0,1,3,3.5
146,2020-07-06T02:25:00,0.7,南西,3.1,南西,23.6,95.2,0,1,3,3.5
147,2020-07-06T02:26:00,0.6,南南西,2,南南西,23.9,95.9,0,1,3,3.5
148,2020-07-06T02:27:00,0.8,南南西,5.4,南,23.8,94.8,0,1,3,3.5
149,2020-07-06T02:28:00,1.2,南南西,6,南,23.9,93.1,0,1,3,3.5
150,2020-07-06T02:29:00,1.4,南南西,6,南,24,91.9,0.5,1.5,3.5,4
151,2020-07-06T02:30:00,1.7,南南西,6,南,23.9,91.8,0.5,1.5,3.5,4
152,2020-07-06T02:31:00,1.8,南南西,6,南,23.8,91.6,0.5,1.5,3.5,4
153,2020-07-06T02:32:00,1.7,南南西,6,南,23.7,92.2,0.5,1.5,3.5,4
154,2020-07-06T02:33:00,1.7,南南西,6,南,23.6,92.8,0.5,1,3.5,4
155,2020-07-06T02:34:00,1.6,南,6,南,23.6,93.5,0.5,1,3.5,4
156,2020-07-06T02:35:00,1.6,南,6,南,23.9,93.5,0.5,1,3.5,4
157,2020-07-06T02:36:00,1.6,南南東,6,南,23.9,92.4,0.5,1,3.5,4
158,2020-07-06T02:37:00,1.5,南,6,南,23.9,92,0.5,1,3.5,4
159,2020-07-06T02:38:00,1.1,南,4.8,南南東,23.8,92,0.5,1,3.5,4
160,2020-07-06T02:39:00,0.8,南南西,4.6,南,23.9,92.1,0,1,3.5,4
161,2020-07-06T02:40:00,0.6,西南西,2.6,南南西,23.9,91.8,0,1,3.5,4
162,2020-07-06T02:41:00,0.5,西北西,2.5,南南西,23.9,92.1,0,1,3.5,4
163,2020-07-06T02:42:00,0.5,西,2.5,南南西,23.9,92.1,0,1,3.5,4
164,2020-07-06T02:43:00,0.6,西南西,2.5,南南西,23.9,92.2,0.5,1.5,4,4.5
165,2020-07-06T02:44:00,0.6,西南西,2.5,南南西,23.9,92.6,0.5,1.5,4,4.5
166,2020-07-06T02:45:00,0.5,西,1.4,南,24.1,93.3,0.5,1.5,4,4.5
167,2020-07-06T02:46:00,0.5,西,1.4,南,24,92.2,0.5,1.5,4,4.5
168,2020-07-06T02:47:00,0.5,西,1.4,南,23.9,92.3,0.5,1.5,4,4.5
169,2020-07-06T02:48:00,0.6,西,1.8,東北東,23.9,92.9,0.5,1.5,4,4.5
170,2020-07-06T02:49:00,0.7,西北西,1.8,東北東,23.9,92.6,0.5,1.5,4,4.5
171,2020-07-06T02:50:00,0.7,西,1.8,東北東,23.9,92.1,0.5,1.5,4,4.5
172,2020-07-06T02:51:00,0.7,南,1.8,東北東,23.9,92,0.5,1.5,4,4.5
173,2020-07-06T02:52:00,0.7,南東,1.8,東北東,23.9,92.2,0.5,1.5,4,4.5
174,2020-07-06T02:53:00,0.7,南東,1.8,東北東,23.8,92.9,0,1.5,4,4.5
175,2020-07-06T02:54:00,0.7,東南東,1.8,東北東,23.7,93.4,0,1.5,4,4.5
176,2020-07-06T02:55:00,0.7,南東,1.8,東北東,23.7,93.6,0,1.5,4,4.5
177,2020-07-06T02:56:00,0.7,南東,1.8,東北東,23.5,93.9,0,1.5,4,4.5
178,2020-07-06T02:57:00,0.7,南東,1.8,東北東,23.4,94.5,0,1.5,4,4.5
179,2020-07-06T02:58:00,0.8,南東,2.5,東南東,23.5,95.1,0,1.5,4,4.5
180,2020-07-06T02:59:00,0.8,南東,2.5,東南東,23.6,95.1,0,1.5,4,4.5
181,2020-07-06T03:00:00,0.9,南南東,2.5,東南東,23.6,95,0,1.5,4,4.5
182,2020-07-06T03:01:00,1,南南東,2.5,東南東,23.7,95.3,0,1.5,4,4.5
183,2020-07-06T03:02:00,0.9,南東,2.5,東南東,23.7,95.3,0,1,4,4.5
184,2020-07-06T03:03:00,1,南南東,2.5,東南東,23.5,95.1,0,1,4,4.5
185,2020-07-06T03:04:00,1.1,南南東,2.5,東南東,23.4,94.9,0,1,4,4.5
186,2020-07-06T03:05:00,1.1,南南東,2.5,東南東,23.4,95.3,0,1,4,4.5
187,2020-07-06T03:06:00,1,南南東,2.5,東南東,23.4,95.4,0,1,4,4.5
188,2020-07-06T03:07:00,1,南南東,2.5,東南東,23.5,95.5,0,1,4,4.5
189,2020-07-06T03:08:00,0.9,南東,2.5,東南東,23.6,95.3,0,1,4,4.5
190,2020-07-06T03:09:00,0.9,南東,1.9,西南西,23.6,95.1,0,1,4,4.5
191,2020-07-06T03:10:00,0.8,東南東,1.9,西南西,23.6,95.1,0,1,4,4.5
192,2020-07-06T03:11:00,0.9,東南東,3.7,南南東,23.6,95.2,0,1,4,4.5
193,2020-07-06T03:12:00,1.1,南東,5.5,南東,23.8,95.4,0.5,1.5,4.5,5
194,2020-07-06T03:13:00,1.3,東南東,5.5,南東,23.9,94,0.5,1.5,4.5,5
195,2020-07-06T03:14:00,1.2,東南東,5.5,南東,23.9,92.8,0.5,1.5,4.5,5
196,2020-07-06T03:15:00,1.5,東南東,7,東南東,23.9,92.6,0.5,1.5,4.5,5
197,2020-07-06T03:16:00,2,東南東,7,東南東,24,92.1,0.5,1.5,4.5,5
198,2020-07-06T03:17:00,2.3,東南東,7,東南東,24.1,91.2,0.5,1.5,4.5,5
199,2020-07-06T03:18:00,2.5,南東,7,東南東,24.1,91,0.5,1.5,4.5,5
200,2020-07-06T03:19:00,2.5,南東,7,東南東,24,91.2,0.5,1.5,4.5,5
201,2020-07-06T03:20:00,2.6,南東,7,東南東,24,91.5,0.5,1.5,4.5,5
202,2020-07-06T03:21:00,2.7,南東,7,東南東,24.2,90.8,0.5,1.5,4.5,5
203,2020-07-06T03:22:00,2.5,南東,7,東南東,24.2,90.4,0,1.5,4.5,5
204,2020-07-06T03:23:00,2.5,南東,7,東南東,24.1,90.4,0,1.5,4.5,5
205,2020-07-06T03:24:00,2.8,南東,7,東南東,24.2,89.4,0,1.5,4.5,5
206,2020-07-06T03:25:00,2.7,南東,7,南東,24.1,89.3,0,1.5,4.5,5
207,2020-07-06T03:26:00,2.4,南東,5.9,東南東,23.9,90.1,0,1.5,4.5,5
208,2020-07-06T03:27:00,2.2,南南東,5.9,東南東,23.8,91.2,0.5,2,5,5.5
209,2020-07-06T03:28:00,2.2,南南東,5.9,東南東,23.7,91.9,0.5,2,5,5.5
210,2020-07-06T03:29:00,2.2,南南東,5.9,東南東,23.6,92.7,0.5,1.5,5,5.5
211,2020-07-06T03:30:00,2.1,南南東,5.9,東南東,23.6,93.8,0.5,1.5,5,5.5
212,2020-07-06T03:31:00,2,南南東,5.9,東南東,23.7,94,0.5,1.5,5,5.5
213,2020-07-06T03:32:00,2,南南東,5.9,東南東,23.8,93,0.5,1.5,5,5.5
214,2020-07-06T03:33:00,1.9,南南東,5.9,南南東,23.8,92.2,0.5,1.5,5,5.5
215,2020-07-06T03:34:00,1.8,南南東,5.9,南南東,23.9,91.1,0.5,1.5,5,5.5
216,2020-07-06T03:35:00,1.7,南南東,5.9,南南東,23.9,90.7,0.5,1.5,5,5.5
217,2020-07-06T03:36:00,1.8,南南東,5.9,南南東,24,90.2,0.5,1.5,5,5.5
218,2020-07-06T03:37:00,1.7,南南東,5.9,南南東,24,90.1,0.5,2,5.5,6
219,2020-07-06T03:38:00,1.8,南東,5.9,南南東,24,90.1,0.5,2,5.5,6
220,2020-07-06T03:39:00,1.8,南東,5.9,南南東,24,89.5,0.5,2,5.5,6
221,2020-07-06T03:40:00,1.9,南東,5.9,南南東,24,89.5,0.5,2,5.5,6
222,2020-07-06T03:41:00,1.9,南東,5.9,南南東,24,89.6,0.5,2,5.5,6
223,2020-07-06T03:42:00,2,南東,5.9,南南東,24,89.2,0.5,2,5.5,6
224,2020-07-06T03:43:00,1.8,南東,5.2,南南東,24.1,88.5,0.5,1.5,5.5,6
225,2020-07-06T03:44:00,1.7,南東,5.2,南南東,24.1,88.5,0.5,1.5,5.5,6
226,2020-07-06T03:45:00,1.7,南東,5.2,南南東,24.1,88.7,0.5,1.5,5.5,6
227,2020-07-06T03:46:00,1.5,南東,5.2,南南東,24.1,88.9,0.5,1.5,5.5,6
228,2020-07-06T03:47:00,1.6,南南東,5.2,南南東,24,88.8,0,1.5,5.5,6
229,2020-07-06T03:48:00,1.5,南南東,5.1,南東,23.8,89.5,0,1.5,5.5,6
230,2020-07-06T03:49:00,1.4,南南東,5.1,南東,23.7,90.4,0,1.5,5.5,6
231,2020-07-06T03:50:00,1.6,南南東,6.4,東南東,23.7,90.8,0,1.5,5.5,6
232,2020-07-06T03:51:00,1.8,南南東,6.4,東南東,23.9,89.4,0,1.5,5.5,6
233,2020-07-06T03:52:00,1.8,南南東,6.4,東南東,24,88.7,0,1.5,5.5,6
234,2020-07-06T03:53:00,1.9,南南東,6.4,東南東,23.9,89,0,1.5,5.5,6
235,2020-07-06T03:54:00,1.9,南南東,6.4,東南東,23.9,89.4,0,1.5,5.5,6
236,2020-07-06T03:55:00,1.9,南東,6.4,東南東,23.9,89.4,0,1.5,5.5,6
237,2020-07-06T03:56:00,2.1,南東,6.4,東南東,23.9,89.3,0,1.5,5.5,6
238,2020-07-06T03:57:00,2.2,南東,6.4,東南東,23.9,89.1,0,1.5,5.5,6
239,2020-07-06T03:58:00,2.1,南東,6.4,東南東,23.9,89.1,0.5,2,6,6.5
240,2020-07-06T03:59:00,2.3,南東,6.4,東南東,23.8,89.5,0.5,2,6,6.5
241,2020-07-06T04:00:00,2.1,南南東,5.6,東南東,23.8,89.9,0.5,2,6,6.5
242,2020-07-06T04:01:00,2,南南東,5.1,南南東,23.8,90.1,0.5,2,6,6.5
243,2020-07-06T04:02:00,2,南南東,5.1,南南東,23.7,90.3,0.5,2,6,6.5
244,2020-07-06T04:03:00,2,南南東,4.8,南南東,23.9,89,1,2.5,6.5,7
245,2020-07-06T04:04:00,2,南南東,4.8,南南東,23.8,89.2,1,2.5,6.5,7
246,2020-07-06T04:05:00,1.9,南南東,4.8,南南東,23.9,89.4,1,2.5,6.5,7
247,2020-07-06T04:06:00,2.1,南南東,7,南南東,24,88.2,1,2.5,6.5,7
248,2020-07-06T04:07:00,2.1,南南東,7.9,南,23.9,88,1,2.5,6.5,7
249,2020-07-06T04:08:00,2.3,南南東,7.9,南,23.9,88.2,0.5,2.5,6.5,7
250,2020-07-06T04:09:00,2.3,南南東,7.9,南,23.8,88.2,0.5,2.5,6.5,7
251,2020-07-06T04:10:00,2.3,南東,7.9,南,23.9,87.9,0.5,2.5,6.5,7
252,2020-07-06T04:11:00,2.5,南東,7.9,南,23.8,88,1,3,7,7.5
253,2020-07-06T04:12:00,2.5,南東,7.9,南,23.8,88.2,1,2.5,7,7.5
254,2020-07-06T04:13:00,2.4,南東,7.9,南,23.7,89.2,0.5,2.5,7,7.5
255,2020-07-06T04:14:00,2.4,南東,7.9,南,23.6,89.6,0.5,2.5,7,7.5
256,2020-07-06T04:15:00,2.3,南東,7.9,南,23.5,90,0.5,2.5,7,7.5
257,2020-07-06T04:16:00,2.2,南東,7.9,南,23.6,90.1,0.5,2.5,7,7.5
258,2020-07-06T04:17:00,2.2,南南東,6.6,東南東,23.6,89.4,0.5,2.5,7,7.5
259,2020-07-06T04:18:00,2.1,南東,6.6,東南東,23.6,89.3,1,3,7.5,8
260,2020-07-06T04:19:00,1.9,南東,6.6,東南東,23.6,89.6,1,3,7.5,8
261,2020-07-06T04:20:00,1.9,南東,6.6,東南東,23.7,89.3,1,3,7.5,8
262,2020-07-06T04:21:00,1.6,南南東,4.9,南東,23.6,88.9,0.5,3,7.5,8
263,2020-07-06T04:22:00,1.6,南南東,4.7,東南東,23.5,89.8,0.5,3,7.5,8
264,2020-07-06T04:23:00,1.5,南南東,4.7,東南東,23.7,90.1,0.5,3,7.5,8
265,2020-07-06T04:24:00,1.5,南,4.7,東南東,23.7,90,0.5,3,7.5,8
266,2020-07-06T04:25:00,1.5,南南西,4.7,東南東,23.6,90.3,0.5,3,7.5,8
267,2020-07-06T04:26:00,1.4,南西,3.3,南,23.6,90.5,0.5,3,7.5,8
268,2020-07-06T04:27:00,1.4,西南西,3.4,西,23.7,89.2,0.5,2.5,7.5,8
269,2020-07-06T04:28:00,1.5,西南西,3.9,西,23.8,88.4,0,2.5,7.5,8
270,2020-07-06T04:29:00,1.5,西南西,3.9,西,23.8,88.4,0,2.5,7.5,8
271,2020-07-06T04:30:00,1.5,西南西,3.9,西,23.7,89.3,0,2.5,7.5,8
272,2020-07-06T04:31:00,1.4,西南西,3.9,西,23.7,89.5,0,2.5,7.5,8
273,2020-07-06T04:32:00,1.4,西南西,3.9,西,23.8,89.1,0,2.5,7.5,8
274,2020-07-06T04:33:00,1.5,西南西,3.9,西,23.8,89.2,0,2.5,7.5,8
275,2020-07-06T04:34:00,1.7,西南西,3.9,西,23.8,89.6,0,2.5,7.5,8
276,2020-07-06T04:35:00,1.6,西南西,3.9,西,23.7,89.9,0,2.5,7.5,8
277,2020-07-06T04:36:00,1.5,西南西,3.9,西,23.7,90.3,0.5,3,8,8.5
278,2020-07-06T04:37:00,1.3,南西,3.9,西,23.6,90.5,0.5,2.5,8,8.5
279,2020-07-06T04:38:00,1.2,南西,3.7,南,23.6,90.6,0.5,2.5,8,8.5
280,2020-07-06T04:39:00,1,南西,3.7,南,23.6,90.8,0.5,2.5,8,8.5
281,2020-07-06T04:40:00,0.9,南西,3.7,南,23.6,91.2,0.5,2.5,8,8.5
282,2020-07-06T04:41:00,0.9,南西,3.7,南,23.5,91.1,0.5,2.5,8,8.5
283,2020-07-06T04:42:00,1,南西,4.9,南西,23.3,91.4,0.5,2.5,8,8.5
284,2020-07-06T04:43:00,1.1,南西,4.9,南西,23.4,91.8,0.5,2.5,8,8.5
285,2020-07-06T04:44:00,1.4,南西,7.5,西,23.4,91.3,1,3,8.5,9
286,2020-07-06T04:45:00,1.6,南西,7.5,西,23.5,90.7,1,3,8.5,9
287,2020-07-06T04:46:00,1.6,南西,7.5,西,23.4,91.2,0.5,3,8.5,9
288,2020-07-06T04:47:00,1.7,南西,7.5,西,23.4,91.2,0.5,3,8.5,9
289,2020-07-06T04:48:00,1.9,南西,7.5,西,23.5,91.3,0.5,3,8.5,9
290,2020-07-06T04:49:00,2.2,南西,7.5,西,23.6,91.1,0.5,3,8.5,9
291,2020-07-06T04:50:00,2.4,南西,7.5,西,23.6,90,0.5,3,8.5,9
292,2020-07-06T04:51:00,2.6,南西,7.5,西,23.7,89.4,0.5,3,8.5,9
293,2020-07-06T04:52:00,2.6,南西,7.5,西,23.6,88.8,0.5,3,8.5,9
294,2020-07-06T04:53:00,2.6,南西,7.5,西,23.5,89.4,1,3.5,9,9.5
295,2020-07-06T04:54:00,2.2,南南西,5.7,西,23.5,89.8,0.5,3.5,9,9.5
296,2020-07-06T04:55:00,2,南南西,5.2,南,23.4,89.9,0.5,3.5,9,9.5
297,2020-07-06T04:56:00,2,南南西,5.2,南,23.6,89.3,0.5,3.5,9,9.5
298,2020-07-06T04:57:00,2,南南西,5.2,南,23.4,89.4,0.5,3.5,9,9.5
299,2020-07-06T04:58:00,1.9,南南西,5.2,南,23.4,90.2,0.5,3,9,9.5
300,2020-07-06T04:59:00,1.7,南南西,5.2,南,23.4,90.7,0.5,3,9,9.5
301,2020-07-06T05:00:00,1.4,南南西,5.2,南,23.3,91.8,0.5,3,9,9.5
302,2020-07-06T05:01:00,1.2,南,3.3,南,23.3,91.9,1,3.5,9.5,10
303,2020-07-06T05:02:00,1,南,3.3,南,23.3,91.6,1,3.5,9.5,10
304,2020-07-06T05:03:00,0.9,南南東,2.8,西,23.3,91.5,0.5,3,9.5,10
305,2020-07-06T05:04:00,0.9,南南東,2.8,西,23.3,91.5,0.5,3,9.5,10
306,2020-07-06T05:05:00,0.7,南東,2.8,西,23.3,91.5,0.5,3,9.5,10
307,2020-07-06T05:06:00,0.7,南東,2.8,西,23.4,91.6,0.5,3,9.5,10
308,2020-07-06T05:07:00,0.6,南東,2.8,西,23.4,91.6,0.5,3,9.5,10
309,2020-07-06T05:08:00,0.5,東南東,2.2,南,23.5,90.9,0.5,3,9.5,10
310,2020-07-06T05:09:00,0.5,東南東,2.2,南,23.4,90.8,0.5,3,9.5,10
311,2020-07-06T05:10:00,0.5,東,1.6,南南東,23.4,91.2,0.5,3,9.5,10
312,2020-07-06T05:11:00,0.4,東,1.5,東,23.3,91.5,0,2.5,9.5,10
313,2020-07-06T05:12:00,0.4,東北東,1.5,東,23.2,91.9,0,2.5,9.5,10
314,2020-07-06T05:13:00,0.4,北東,1.2,北西,23.3,91.8,0,2.5,9.5,10
315,2020-07-06T05:14:00,0.4,北北東,1.2,北西,23.3,91.7,0,2.5,9.5,10
316,2020-07-06T05:15:00,0.4,北,1.2,北西,23.3,91.6,0,2.5,9.5,10
317,2020-07-06T05:16:00,0.4,北,1.2,北西,23.4,91.2,0.5,3,10,10.5
318,2020-07-06T05:17:00,0.4,北北東,1.2,北西,23.3,91.3,0.5,3,10,10.5
319,2020-07-06T05:18:00,0.4,北北東,1.1,北,23.3,91.5,0.5,2.5,10,10.5
320,2020-07-06T05:19:00,0.5,北北東,1.1,北,23.3,91.6,0.5,2.5,10,10.5
321,2020-07-06T05:20:00,0.6,北北東,1.1,北,23.3,91.7,0.5,2.5,10,10.5
322,2020-07-06T05:21:00,0.6,北,1.1,北,23.3,91.9,0.5,2.5,10,10.5
323,2020-07-06T05:22:00,0.7,北,1.1,北,23.3,92,0.5,2.5,10,10.5
324,2020-07-06T05:23:00,0.7,北,1.1,北,23.2,92.4,0.5,2.5,10,10.5
325,2020-07-06T05:24:00,0.7,北,1.6,南南西,23.1,92.7,0.5,2.5,10,10.5
326,2020-07-06T05:25:00,0.8,北北西,1.9,南,23,93.2,0.5,2.5,10,10.5
327,2020-07-06T05:26:00,0.8,北西,1.9,南,23,94,0,2.5,10,10.5
328,2020-07-06T05:27:00,0.8,西北西,1.9,南,23.1,94.5,0,2.5,10,10.5
329,2020-07-06T05:28:00,0.8,西,1.9,南,23.3,95.2,0,2.5,10,10.5
330,2020-07-06T05:29:00,0.7,南西,1.9,南,23.2,94.6,0,2.5,10,10.5
331,2020-07-06T05:30:00,0.7,南西,1.9,南,23.1,94.4,0,2.5,10,10.5
332,2020-07-06T05:31:00,0.6,南西,1.9,南,23.1,94.2,0,2.5,10,10.5
333,2020-07-06T05:32:00,0.6,南南西,1.9,南,23,94.6,0,2.5,10,10.5
334,2020-07-06T05:33:00,0.7,南南西,1.9,南,22.9,95,0,2.5,10,10.5
335,2020-07-06T05:34:00,0.8,南南西,1.9,南,22.8,95.2,0,2.5,10,10.5
336,2020-07-06T05:35:00,0.7,南,1.7,南南東,22.6,95.4,0,2.5,10,10.5
337,2020-07-06T05:36:00,0.7,南,1.7,南南東,22.7,95.7,0,2,10,10.5
338,2020-07-06T05:37:00,0.6,南,1.7,南南東,22.9,96.1,0,2,10,10.5
339,2020-07-06T05:38:00,0.6,南南東,1.7,南南東,22.9,96,0,2,10,10.5
340,2020-07-06T05:39:00,0.5,南東,1.7,南南東,22.9,95.7,0,2,10,10.5
341,2020-07-06T05:40:00,0.5,南東,1.7,南南東,22.8,95.7,0,2,10,10.5
342,2020-07-06T05:41:00,0.6,南東,1.7,南南東,22.7,95.6,0,2,10,10.5
343,2020-07-06T05:42:00,0.6,南南東,1.7,南南東,22.6,95.8,0,2,10,10.5
344,2020-07-06T05:43:00,0.5,南南東,1.4,南東,22.6,96,0,2,10,10.5
345,2020-07-06T05:44:00,0.5,南南東,1.2,南西,22.8,96.4,0,1.5,10,10.5
346,2020-07-06T05:45:00,0.4,南南東,1.2,南西,22.9,96.5,0,1.5,10,10.5
347,2020-07-06T05:46:00,0.4,南南東,1.2,南西,22.7,96.2,0,1.5,10,10.5
348,2020-07-06T05:47:00,0.4,南南東,1.2,南西,22.8,96.2,0,1.5,10,10.5
349,2020-07-06T05:48:00,0.4,南南東,1.2,南西,22.8,96.1,0,1.5,10,10.5
350,2020-07-06T05:49:00,0.5,南南東,1.2,南西,22.7,96.1,0,1.5,10,10.5
351,2020-07-06T05:50:00,0.4,東南東,1.2,南西,22.8,96.1,0,1.5,10,10.5
352,2020-07-06T05:51:00,0.4,東,1.2,南西,22.8,96.1,0,1.5,10,10.5
353,2020-07-06T05:52:00,0.4,東,1.5,南,22.8,96.2,0,1.5,10,10.5
354,2020-07-06T05:53:00,0.3,東北東,1.5,南,23,96.5,0,1,10,10.5
355,2020-07-06T05:54:00,0.4,東北東,1.7,西南西,22.8,96.1,0,1,10,10.5
356,2020-07-06T05:55:00,0.6,北東,2.2,西南西,22.6,95.9,0,1,10,10.5
357,2020-07-06T05:56:00,0.7,北,2.7,西南西,22.6,96,0,1,10,10.5
358,2020-07-06T05:57:00,0.8,北西,2.7,西南西,22.6,96.2,0,1,10,10.5
359,2020-07-06T05:58:00,0.8,北西,2.7,西南西,22.7,96.4,0,1,10,10.5
360,2020-07-06T05:59:00,0.8,北西,2.7,西南西,22.7,96.4,0,1,10,10.5
361,2020-07-06T06:00:00,0.9,北北西,2.7,西南西,22.7,96.5,0,1,10,10.5
362,2020-07-06T06:01:00,0.9,北,2.7,西南西,22.8,96.5,0,0.5,10,10.5
363,2020-07-06T06:02:00,0.9,北,2.7,西南西,22.8,96.4,0,0.5,10,10.5
364,2020-07-06T06:03:00,1,北北西,2.7,西南西,22.8,96.3,0,0.5,10,10.5
365,2020-07-06T06:04:00,0.9,北北西,2.7,西南西,22.8,96.2,0,0.5,10,10.5
366,2020-07-06T06:05:00,0.8,北,2.7,西南西,22.7,96.2,0,0.5,10,10.5
367,2020-07-06T06:06:00,0.6,北北東,1.4,西,22.7,96.2,0,0.5,10,10.5
368,2020-07-06T06:07:00,0.5,北東,1.2,北,22.7,96.4,0,0.5,10,10.5
369,2020-07-06T06:08:00,0.5,東北東,1.4,南,22.7,96.4,0,0.5,10,10.5
370,2020-07-06T06:09:00,0.6,東,1.4,南,22.7,96.4,0,0.5,10,10.5
371,2020-07-06T06:10:00,0.6,南東,1.4,南,22.7,96.4,0,0.5,10,10.5
372,2020-07-06T06:11:00,0.6,南東,1.4,南,22.8,96.6,0,0.5,10,10.5
373,2020-07-06T06:12:00,0.5,南南東,1.4,南,22.9,96.7,0,0.5,10,10.5
374,2020-07-06T06:13:00,0.5,南南東,1.4,南,22.9,96.4,0,0.5,10,10.5
375,2020-07-06T06:14:00,0.6,南南東,1.7,南南西,22.9,96.3,0,0.5,10,10.5
376,2020-07-06T06:15:00,0.6,南南東,1.7,南南西,22.8,96.2,0,0.5,10,10.5
377,2020-07-06T06:16:00,0.6,南南東,1.7,南南西,22.9,96.4,0,0,10,10.5
378,2020-07-06T06:17:00,0.7,南南東,1.7,南南西,22.9,96.5,0,0,10,10.5
379,2020-07-06T06:18:00,0.7,南南東,2,南南西,22.9,96.4,0,0,10,10.5
380,2020-07-06T06:19:00,0.7,南南東,2.9,南,23.1,96.4,0,0,10,10.5
381,2020-07-06T06:20:00,0.8,南南東,2.9,南,23.3,95.7,0,0,10,10.5
382,2020-07-06T06:21:00,0.9,南南東,3.2,南,23.3,95.2,0,0,10,10.5
383,2020-07-06T06:22:00,0.9,南南東,3.2,南,23.3,95.2,0,0,10,10.5
384,2020-07-06T06:23:00,0.8,南南東,3.2,南,23.4,94.9,0,0,10,10.5
385,2020-07-06T06:24:00,0.8,南,3.2,南,23.3,94.1,0,0,10,10.5
386,2020-07-06T06:25:00,0.8,南,3.2,南,23.3,94.4,0,0,10,10.5
387,2020-07-06T06:26:00,0.9,西南西,3.2,南,23.3,94.6,0,0,10,10.5
388,2020-07-06T06:27:00,1.1,西,3.2,南,23.3,94.2,0,0,10,10.5
389,2020-07-06T06:28:00,1.2,西北西,3.2,南,23.3,93.8,0,0,10,10.5
390,2020-07-06T06:29:00,1.2,北西,3.2,南,23.4,93.4,0.5,0.5,10.5,11
391,2020-07-06T06:30:00,1.1,北西,3.2,南,23.6,93.1,0.5,0.5,10.5,11
392,2020-07-06T06:31:00,1,北西,3.1,西北西,23.6,93,0.5,0.5,10.5,11
393,2020-07-06T06:32:00,1.1,北北西,3.1,西北西,23.6,92.9,0.5,0.5,10.5,11
394,2020-07-06T06:33:00,1.1,北北西,3.1,西北西,23.6,92.9,0.5,0.5,10.5,11
395,2020-07-06T06:34:00,1.1,北,3.1,西北西,23.6,92.9,0.5,0.5,10.5,11
396,2020-07-06T06:35:00,1.1,北,3.1,西北西,23.6,92.6,0.5,0.5,10.5,11